GW4109 Weather Reports


Display with metric or nautical units.
time (UTC)temp
F
wind
direction
speed
MPH
gust
MPH
rain 1hr
in
rain 24hr
in
rain mn
in
humidity
%
barometer
mb
20260902212146 100 254 2.0 15.0 0.00 0.00 0.00 12 1015.5
20260902211642 99 247 11.0 17.0 0.00 0.00 0.00 12 1015.6
20260902211137 99 305 8.0 14.0 0.00 0.00 0.00 11 1015.5
20260902210636 99 273 6.0 9.0 0.00 0.00 0.00 11 1015.7
20260902210132 99 333 8.0 14.0 0.00 0.00 0.00 11 1015.7
20260902205630 100 249 9.0 14.0 0.00 0.00 0.00 9 1015.6
20260902205125 100 249 11.0 15.0 0.00 0.00 0.00 11 1015.7
20260902204620 98 254 7.0 17.0 0.00 0.00 0.00 10 1015.7
20260902204115 98 282 7.0 18.0 0.00 0.00 0.00 10 1016.0
20260902203610 99 240 17.0 25.0 0.00 0.00 0.00 9 1015.7
20260902203110 99 248 9.0 11.0 0.00 0.00 0.00 9 1015.9
20260902202605 99 263 6.0 7.0 0.00 0.00 0.00 9 1015.9
20260902202102 99 276 5.0 11.0 0.00 0.00 0.00 9 1016.0
20260902201557 99 266 3.0 16.0 0.00 0.00 0.00 9 1016.0
20260902201056 99 305 3.0 9.0 0.00 0.00 0.00 9 1015.9
20260902200551 98 247 6.0 11.0 0.00 0.00 0.00 9 1016.1
20260902200048 98 266 5.0 18.0 0.00 0.00 0.00 9 1016.3
20260902195543 98 265 7.0 11.0 0.00 0.00 0.00 9 1016.3
20260902195042 97 329 14.0 17.0 0.00 0.00 0.00 9 1016.3
20260902194541 98 301 8.0 13.0 0.00 0.00 0.00 9 1016.2
20260902194037 98 250 9.0 11.0 0.00 0.00 0.00 9 1016.5
20260902193533 98 266 5.0 13.0 0.00 0.00 0.00 9 1016.3
20260902193032 99 233 11.0 19.0 0.00 0.00 0.00 9 1016.7
20260902192531 98 326 4.0 10.0 0.00 0.00 0.00 9 1016.8
20260902192030 99 321 13.0 13.0 0.00 0.00 0.00 9 1016.7
20260902191526 99 264 6.0 14.0 0.00 0.00 0.00 9 1016.9
20260902191020 98 229 4.0 12.0 0.00 0.00 0.00 9 1016.8
20260902190516 97 262 9.0 14.0 0.00 0.00 0.00 9 1016.8
20260902190012 97 267 4.0 7.0 0.00 0.00 0.00 10 1017.1
20260902185508 97 288 13.0 18.0 0.00 0.00 0.00 9 1017.0
20260902185003 96 244 4.0 16.0 0.00 0.00 0.00 10 1017.2
20260902184458 98 257 7.0 11.0 0.00 0.00 0.00 9 1017.2
20260902183953 97 285 6.0 12.0 0.00 0.00 0.00 10 1017.2
20260902183449 96 311 10.0 15.0 0.00 0.00 0.00 10 1017.2
20260902182945 97 252 5.0 10.0 0.00 0.00 0.00 9 1017.3
20260902182441 97 281 4.0 9.0 0.00 0.00 0.00 9 1017.4
20260902181937 97 228 4.0 9.0 0.00 0.00 0.00 9 1017.4
20260902181432 97 242 5.0 9.0 0.00 0.00 0.00 10 1017.4
20260902180926 97 242 5.0 5.0 0.00 0.00 0.00 10 1017.5
20260902180422 97 276 3.0 3.0 0.00 0.00 0.00 10 1017.6
20260902175917 97 275 3.0 5.0 0.00 0.00 0.00 10 1017.5
20260902175412 96 163 0.0 2.0 0.00 0.00 0.00 10 1017.6
20260902174908 95 102 2.0 6.0 0.00 0.00 0.00 10 1017.6
20260902174405 96 235 0.0 2.0 0.00 0.00 0.00 10 1017.9
20260902173900 95 32 0.0 2.0 0.00 0.00 0.00 11 1017.6
20260902173359 95 107 4.0 4.0 0.00 0.00 0.00 11 1017.8
20260902172855 94 119 0.0 3.0 0.00 0.00 0.00 11 1017.7
20260902172354 95 75 0.0 4.0 0.00 0.00 0.00 11 1017.8
20260902171849 94 75 3.0 3.0 0.00 0.00 0.00 12 1017.7
20260902171344 93 83 3.0 7.0 0.00 0.00 0.00 12 1017.6
20260902170841 94 76 3.0 3.0 0.00 0.00 0.00 12 1017.8
20260902170336 94 100 4.0 5.0 0.00 0.00 0.00 12 1017.6
20260902165831 93 81 2.0 3.0 0.00 0.00 0.00 12 1017.6
20260902165330 93 16 2.0 3.0 0.00 0.00 0.00 13 1017.5
20260902164825 92 130 0.0 3.0 0.00 0.00 0.00 13 1017.7
20260902164321 92 127 1.0 3.0 0.00 0.00 0.00 13 1017.6
20260902163820 92 105 0.0 2.0 0.00 0.00 0.00 13 1018.0
20260902163320 92 148 2.0 3.0 0.00 0.00 0.00 13 1017.7
20260902162818 92 110 1.0 3.0 0.00 0.00 0.00 14 1017.7
20260902162313 91 119 1.0 3.0 0.00 0.00 0.00 14 1017.7
20260902161808 91 68 1.0 2.0 0.00 0.00 0.00 14 1017.7
20260902161304 90 225 0.0 2.0 0.00 0.00 0.00 14 1017.8
20260902160800 90 71 0.0 2.0 0.00 0.00 0.00 14 1017.8
20260902160255 90 131 0.0 2.0 0.00 0.00 0.00 15 1017.9
20260902155753 91 117 0.0 1.0 0.00 0.00 0.00 14 1017.6
20260902155252 89 350 1.0 2.0 0.00 0.00 0.00 15 1017.9
20260902154747 90 34 2.0 2.0 0.00 0.00 0.00 15 1017.7
20260902154243 90 41 0.0 2.0 0.00 0.00 0.00 15 1017.6
20260902153735 90 59 2.0 2.0 0.00 0.00 0.00 15 1017.5
20260902153236 89 232 0.0 2.0 0.00 0.00 0.00 15 1017.5
20260902152732 87 265 0.0 2.0 0.00 0.00 0.00 16 1017.7
20260902152227 87 296 0.0 1.0 0.00 0.00 0.00 16 1017.5
20260902151723 87 282 0.0 2.0 0.00 0.00 0.00 16 1017.5
20260902151223 88 356 2.0 2.0 0.00 0.00 0.00 16 1017.6
20260902150723 89 79 0.0 2.0 0.00 0.00 0.00 15 1017.5
20260902150219 89 84 1.0 2.0 0.00 0.00 0.00 16 1017.6
20260902145718 87 37 1.0 2.0 0.00 0.00 0.00 18 1017.6
20260902145213 87 15 0.0 1.0 0.00 0.00 0.00 19 1017.6
20260902144709 84 6 0.0 2.0 0.00 0.00 0.00 20 1017.7
20260902144205 84 343 2.0 2.0 0.00 0.00 0.00 19 1017.5
20260902143700 83 1 1.0 2.0 0.00 0.00 0.00 22 1017.5
20260902143155 84 318 0.0 1.0 0.00 0.00 0.00 19 1017.3
20260902142651 81 124 0.0 1.0 0.00 0.00 0.00 20 1017.3
20260902142147 79 201 0.0 2.0 0.00 0.00 0.00 20 1017.5
20260902141646 78 274 0.0 2.0 0.00 0.00 0.00 21 1017.6
20260902141142 76 268 1.0 2.0 0.00 0.00 0.00 22 1017.4
20260902140637 75 226 1.0 2.0 0.00 0.00 0.00 23 1017.3
20260902140132 74 168 1.0 2.0 0.00 0.00 0.00 23 1017.2
20260902135631 73 249 2.0 2.0 0.00 0.00 0.00 23 1017.3
20260902135126 72 190 1.0 2.0 0.00 0.00 0.00 24 1016.9
20260902134622 72 274 2.0 3.0 0.00 0.00 0.00 24 1017.2
20260902134121 72 142 1.0 2.0 0.00 0.00 0.00 24 1016.9
20260902133621 72 322 0.0 2.0 0.00 0.00 0.00 24 1017.0
20260902133116 73 220 0.0 2.0 0.00 0.00 0.00 24 1016.9
20260902132612 73 141 0.0 2.0 0.00 0.00 0.00 24 1017.0
20260902132107 71 251 0.0 2.0 0.00 0.00 0.00 24 1016.9
20260902131603 73 128 0.0 2.0 0.00 0.00 0.00 23 1016.9
20260902131058 72 228 0.0 2.0 0.00 0.00 0.00 24 1016.8
20260902130554 70 183 1.0 2.0 0.00 0.00 0.00 25 1016.7
20260902130049 72 234 2.0 2.0 0.00 0.00 0.00 24 1016.8
20260902125544 72 174 0.0 2.0 0.00 0.00 0.00 24 1016.9
20260902125040 72 212 0.0 1.0 0.00 0.00 0.00 24 1016.8
20260902124536 72 225 1.0 2.0 0.00 0.00 0.00 23 1016.7
20260902124031 73 201 0.0 2.0 0.00 0.00 0.00 23 1016.6
20260902123526 73 238 1.0 1.0 0.00 0.00 0.00 23 1016.7
20260902123021 71 236 2.0 2.0 0.00 0.00 0.00 24 1016.8
20260902122520 73 231 2.0 4.0 0.00 0.00 0.00 23 1016.6
20260902122015 73 237 4.0 4.0 0.00 0.00 0.00 23 1016.8
20260902121510 73 225 2.0 3.0 0.00 0.00 0.00 23 1016.6
20260902121005 73 108 0.0 2.0 0.00 0.00 0.00 23 1016.6
20260902120502 73 235 3.0 3.0 0.00 0.00 0.00 22 1016.8
20260902120002 73 200 3.0 4.0 0.00 0.00 0.00 22 1016.6
20260902115457 74 218 3.0 4.0 0.00 0.00 0.00 22 1016.6
20260902114954 75 222 1.0 2.0 0.00 0.00 0.00 22 1016.3
20260902114449 74 201 0.0 2.0 0.00 0.00 0.00 22 1016.5
20260902113944 75 249 1.0 4.0 0.00 0.00 0.00 21 1016.5
20260902113440 75 219 2.0 4.0 0.00 0.00 0.00 21 1016.5
20260902112939 73 240 4.0 4.0 0.00 0.00 0.00 22 1016.6
20260902112436 75 191 1.0 2.0 0.00 0.00 0.00 21 1016.3
20260902111931 75 253 0.0 2.0 0.00 0.00 0.00 21 1016.6
20260902111427 75 219 0.0 2.0 0.00 0.00 0.00 21 1016.8
20260902110923 75 234 1.0 3.0 0.00 0.00 0.00 21 1016.7
20260902110420 74 242 0.0 3.0 0.00 0.00 0.00 21 1016.7
20260902105919 75 241 3.0 4.0 0.00 0.00 0.00 21 1016.5
20260902105414 75 205 2.0 2.0 0.00 0.00 0.00 21 1016.5
20260902104910 75 283 0.0 2.0 0.00 0.00 0.00 21 1016.7
20260902104406 75 77 0.0 2.0 0.00 0.00 0.00 20 1016.9
20260902103905 73 159 2.0 2.0 0.00 0.00 0.00 21 1016.6
20260902103400 74 180 0.0 2.0 0.00 0.00 0.00 21 1016.6
20260902102854 75 117 0.0 2.0 0.00 0.00 0.00 20 1016.7
20260902102353 73 226 3.0 4.0 0.00 0.00 0.00 20 1016.8
20260902101848 73 327 0.0 2.0 0.00 0.00 0.00 21 1016.8
20260902101343 74 240 2.0 4.0 0.00 0.00 0.00 20 1017.0
20260902100842 75 245 2.0 2.0 0.00 0.00 0.00 19 1016.9
20260902100337 74 10 1.0 1.0 0.00 0.00 0.00 20 1017.0
20260902095832 73 282 2.0 3.0 0.00 0.00 0.00 20 1017.0
20260902095331 73 267 1.0 2.0 0.00 0.00 0.00 20 1017.0
20260902094831 75 33 0.0 2.0 0.00 0.00 0.00 20 1017.0
20260902094328 75 117 0.0 1.0 0.00 0.00 0.00 19 1016.9
20260902093827 75 207 0.0 3.0 0.00 0.00 0.00 20 1017.0
20260902093322 73 218 0.0 2.0 0.00 0.00 0.00 20 1017.1
20260902092821 74 224 0.0 2.0 0.00 0.00 0.00 20 1016.9
20260902092317 74 141 0.0 2.0 0.00 0.00 0.00 20 1016.8
20260902091811 74 244 1.0 3.0 0.00 0.00 0.00 20 1017.1
20260902091307 75 262 2.0 3.0 0.00 0.00 0.00 19 1017.0
20260902090804 76 249 1.0 2.0 0.00 0.00 0.00 18 1017.1
20260902090302 76 337 3.0 3.0 0.00 0.00 0.00 18 1017.3
20260902085802 77 245 1.0 5.0 0.00 0.00 0.00 18 1017.3
20260902085257 76 251 3.0 6.0 0.00 0.00 0.00 18 1017.3
20260902084753 75 219 2.0 3.0 0.00 0.00 0.00 19 1017.3
20260902084248 75 292 2.0 3.0 0.00 0.00 0.00 19 1017.5
20260902083744 75 332 2.0 3.0 0.00 0.00 0.00 19 1017.3
20260902083238 77 249 1.0 4.0 0.00 0.00 0.00 18 1017.5
20260902082733 78 62 2.0 3.0 0.00 0.00 0.00 19 1017.6
20260902082230 80 299 5.0 9.0 0.00 0.00 0.00 16 1017.4
20260902081726 81 337 2.0 8.0 0.00 0.00 0.00 17 1017.5
20260902081221 80 331 5.0 5.0 0.00 0.00 0.00 16 1017.5
20260902080715 81 339 3.0 7.0 0.00 0.00 0.00 16 1017.2
20260902080207 80 12 6.0 9.0 0.00 0.00 0.00 17 1017.2
20260902075706 80 20 2.0 9.0 0.00 0.00 0.00 17 1017.4
20260902075202 80 350 4.0 6.0 0.00 0.00 0.00 17 1017.3
20260902074657 80 18 6.0 8.0 0.00 0.00 0.00 17 1017.3
20260902074152 80 16 3.0 6.0 0.00 0.00 0.00 17 1017.3
20260902073647 80 358 3.0 6.0 0.00 0.00 0.00 17 1017.4
20260902073144 80 359 3.0 6.0 0.00 0.00 0.00 17 1017.3
20260902072639 80 299 0.0 5.0 0.00 0.00 0.00 18 1017.2
20260902072135 79 355 2.0 3.0 0.00 0.00 0.00 18 1017.4
20260902071630 78 31 1.0 5.0 0.00 0.00 0.00 19 1017.3
20260902071126 76 86 0.0 2.0 0.00 0.00 0.00 22 1017.4
20260902070621 76 274 2.0 2.0 0.00 0.00 0.00 22 1017.3
20260902070116 77 18 2.0 2.0 0.00 0.00 0.00 21 1017.1
20260902065615 78 229 0.0 1.0 0.00 0.00 0.00 21 1017.2
20260902065111 78 282 0.0 3.0 0.00 0.00 0.00 21 1017.4
20260902064607 77 165 0.0 2.0 0.00 0.00 0.00 21 1017.3
20260902064101 78 299 2.0 5.0 0.00 0.00 0.00 21 1017.1
20260902063556 79 224 0.0 2.0 0.00 0.00 0.00 20 1017.1
20260902063051 77 312 2.0 3.0 0.00 0.00 0.00 20 1017.1
20260902062549 77 357 1.0 3.0 0.00 0.00 0.00 22 1017.1
20260902062046 77 68 0.0 2.0 0.00 0.00 0.00 22 1017.2
20260902061545 78 234 2.0 3.0 0.00 0.00 0.00 21 1017.0
20260902061041 77 297 2.0 2.0 0.00 0.00 0.00 21 1017.1
20260902060537 77 57 1.0 2.0 0.00 0.00 0.00 22 1016.9
20260902060034 77 355 1.0 2.0 0.00 0.00 0.00 22 1016.9
20260902055529 78 100 0.0 1.0 0.00 0.00 0.00 21 1017.0
20260902055024 78 128 0.0 2.0 0.00 0.00 0.00 21 1017.0
20260902054519 77 147 0.0 2.0 0.00 0.00 0.00 22 1016.8
20260902054015 78 158 0.0 1.0 0.00 0.00 0.00 22 1016.9
20260902053510 79 224 0.0 2.0 0.00 0.00 0.00 22 1016.9
20260902053010 81 263 0.0 2.0 0.00 0.00 0.00 20 1016.8
20260902052504 82 316 4.0 6.0 0.00 0.00 0.00 19 1017.0
20260902052000 82 68 0.0 2.0 0.00 0.00 0.00 19 1016.9
20260902051500 82 17 2.0 5.0 0.00 0.00 0.00 19 1017.0
20260902050958 82 357 2.0 5.0 0.00 0.00 0.00 19 1017.1
20260902050453 81 329 1.0 2.0 0.00 0.00 0.00 20 1017.1
20260902045948 82 64 0.0 4.0 0.00 0.00 0.00 20 1016.9
20260902045444 83 52 2.0 2.0 0.00 0.00 0.00 21 1017.0
20260902044940 82 77 3.0 3.0 0.00 0.00 0.00 22 1017.0
20260902044435 82 101 1.0 3.0 0.00 0.00 0.00 21 1017.0
20260902043930 82 74 0.0 2.0 0.00 0.00 0.00 21 1016.8
20260902043425 83 236 2.0 4.0 0.00 0.00 0.00 20 1016.8
20260902042920 83 239 2.0 3.0 0.00 0.00 0.00 21 1016.6
20260902042419 83 130 1.0 2.0 0.00 0.00 0.00 21 1016.5
20260902041915 84 123 2.0 2.0 0.00 0.00 0.00 20 1016.6
20260902041409 85 109 2.0 3.0 0.00 0.00 0.00 18 1016.6
20260902040911 85 197 0.0 2.0 0.00 0.00 0.00 18 1016.2
20260902040403 86 347 2.0 4.0 0.00 0.00 0.00 18 1016.2
20260902035902 86 353 2.0 6.0 0.00 0.00 0.00 18 1016.0
20260902035352 86 10 1.0 3.0 0.00 0.00 0.00 19 1015.9
20260902034851 87 111 0.0 2.0 0.00 0.00 0.00 19 1015.9
20260902034347 87 317 4.0 5.0 0.00 0.00 0.00 18 1015.9
20260902033845 86 322 0.0 2.0 0.00 0.00 0.00 19 1015.8
20260902033340 86 0 0.0 2.0 0.00 0.00 0.00 20 1015.6
20260902032839 87 30 2.0 2.0 0.00 0.00 0.00 19 1015.7
20260902032338 87 290 0.0 4.0 0.00 0.00 0.00 19 1015.5
20260902031833 88 250 4.0 7.0 0.00 0.00 0.00 19 1015.4
20260902031329 88 280 1.0 7.0 0.00 0.00 0.00 19 1015.2
20260902030819 88 333 5.0 11.0 0.00 0.00 0.00 19 1015.2
20260902030313 88 298 6.0 6.0 0.00 0.00 0.00 19 1015.1
20260902025813 88 264 6.0 10.0 0.00 0.00 0.00 19 1015.3
20260902025309 88 303 6.0 11.0 0.00 0.00 0.00 19 1015.1
20260902024803 88 339 4.0 10.0 0.00 0.00 0.00 18 1014.9
20260902024258 89 328 7.0 11.0 0.00 0.00 0.00 18 1014.9
20260902023754 89 303 4.0 17.0 0.00 0.00 0.00 19 1014.7
20260902023249 89 271 4.0 16.0 0.00 0.00 0.00 18 1014.6
20260902022748 90 279 7.0 17.0 0.00 0.00 0.00 19 1014.5
20260902022244 89 327 7.0 12.0 0.00 0.00 0.00 20 1014.6
20260902021739 90 244 10.0 15.0 0.00 0.00 0.00 22 1014.5
20260902021233 90 293 7.0 12.0 0.00 0.00 0.00 22 1014.3
20260902020730 90 244 15.0 17.0 0.00 0.00 0.00 22 1014.3
20260902020225 91 229 8.0 10.0 0.00 0.00 0.00 22 1014.3
20260902015720 91 312 4.0 9.0 0.00 0.00 0.00 22 1014.3
20260902015217 91 291 6.0 11.0 0.00 0.00 0.00 21 1014.4
20260902014712 92 262 8.0 14.0 0.00 0.00 0.00 19 1013.9
20260902014209 92 239 12.0 17.0 0.00 0.00 0.00 20 1014.0
20260902013707 93 296 8.0 19.0 0.00 0.00 0.00 20 1014.0
20260902013203 92 284 6.0 15.0 0.00 0.00 0.00 20 1013.9
20260902012658 93 230 1.0 6.0 0.00 0.00 0.00 19 1013.9
20260902012153 93 271 5.0 17.0 0.00 0.00 0.00 18 1013.8
20260902011648 93 280 6.0 17.0 0.00 0.00 0.00 19 1013.7
20260902011143 93 246 5.0 12.0 0.00 0.00 0.00 21 1013.9
20260902010642 95 279 7.0 17.0 0.00 0.00 0.00 21 1013.8
20260902010139 95 263 5.0 13.0 0.00 0.00 0.00 20 1013.7
20260902005636 96 3 3.0 7.0 0.00 0.00 0.00 21 1014.0
20260902005132 98 312 4.0 17.0 0.00 0.00 0.00 18 1013.9
20260902004632 96 241 5.0 12.0 0.00 0.00 0.00 20 1014.1
20260902004127 98 243 7.0 8.0 0.00 0.00 0.00 17 1014.1
20260902003622 98 286 5.0 10.0 0.00 0.00 0.00 19 1013.8
20260902003118 98 297 4.0 10.0 0.00 0.00 0.00 19 1014.1
20260902002613 98 267 6.0 10.0 0.00 0.00 0.00 18 1014.0
20260902002108 97 251 7.0 10.0 0.00 0.00 0.00 19 1014.1
20260902001602 98 241 10.0 16.0 0.00 0.00 0.00 18 1014.1
20260902001052 99 265 4.0 11.0 0.00 0.00 0.00 19 1013.9
20260902000546 99 312 5.0 10.0 0.00 0.00 0.00 18 1014.2
20260902000042 98 273 5.0 12.0 0.00 0.00 0.00 18 1014.0
20260901235541 100 262 5.0 13.0 0.00 0.00 0.00 19 1014.2
20260901235038 100 272 5.0 9.0 0.00 0.00 0.00 19 1014.0
20260901234536 99 247 9.0 16.0 0.00 0.00 0.00 19 1014.0
20260901234032 100 294 3.0 11.0 0.00 0.00 0.00 19 1014.2
20260901233531 100 234 14.0 17.0 0.00 0.00 0.00 19 1014.1
20260901233028 100 319 4.0 11.0 0.00 0.00 0.00 19 1014.1
20260901232523 100 233 3.0 11.0 0.00 0.00 0.00 19 1014.2
20260901232018 101 61 4.0 9.0 0.00 0.00 0.00 19 1014.3
20260901231514 100 232 10.0 19.0 0.00 0.00 0.00 18 1014.2
20260901231011 100 291 6.0 12.0 0.00 0.00 0.00 18 1014.2
20260901230510 102 261 4.0 10.0 0.00 0.00 0.00 17 1014.3
20260901230006 100 227 9.0 13.0 0.00 0.00 0.00 17 1014.3
20260901225500 100 288 3.0 12.0 0.00 0.00 0.00 17 1014.4
20260901224954 100 278 8.0 15.0 0.00 0.00 0.00 17 1014.4
20260901224450 102 251 4.0 9.0 0.00 0.00 0.00 16 1014.4
20260901223946 101 224 4.0 8.0 0.00 0.00 0.00 17 1014.5
20260901223442 101 257 8.0 12.0 0.00 0.00 0.00 17 1014.5
20260901222937 101 250 11.0 16.0 0.00 0.00 0.00 16 1014.5
20260901222433 102 249 9.0 11.0 0.00 0.00 0.00 16 1014.5
20260901221929 103 264 5.0 14.0 0.00 0.00 0.00 16 1014.5
20260901221425 102 233 9.0 14.0 0.00 0.00 0.00 16 1014.5
20260901220920 102 256 11.0 15.0 0.00 0.00 0.00 16 1014.5
20260901220419 102 244 6.0 11.0 0.00 0.00 0.00 16 1014.5
20260901215918 100 234 4.0 19.0 0.00 0.00 0.00 16 1014.7
20260901215416 101 252 6.0 17.0 0.00 0.00 0.00 17 1014.7
20260901214916 102 231 6.0 21.0 0.00 0.00 0.00 16 1014.7
20260901214414 103 243 15.0 17.0 0.00 0.00 0.00 15 1014.9
20260901213914 102 232 19.0 27.0 0.00 0.00 0.00 15 1014.7
20260901213409 103 221 9.0 16.0 0.00 0.00 0.00 15 1014.9
20260901212903 102 219 6.0 19.0 0.00 0.00 0.00 16 1015.0